User: anonymous   Login
Location: Houston
(29.7631°N, 95.3631°W)
Time: 19:52:47
(UTC-05:00)
Language:

NO-84 - Orbit

View from above orbital plane
View from above orbital plane
View from above satellite
View from above satellite

Ground track
Ground track

The orbit data is extracted from the following two-line orbital elements,

1 40654U 15025D   19143.41260636  .00004631  00000 0  71787-4 0  6228
2 40654  54.9906 292.5776 0135275 258.2215 100.3571 15.46600668108389
Epoch (UTC): 23 May 2019 09:54:09
Eccentricity: 0.0135275
inclination: 54.9906°
perigee height: 334 km
apogee height: 519 km
right ascension of ascending node: 292.5776°
argument of perigee: 258.2215°
revolutions per day: 15.46600668
mean anomaly at epoch: 100.3571°
orbit number at epoch: 10838

The dashed part of the orbit path shows where the satellite is in the earth's shadow,  

DLR